User: anonymous   Login
Location: Edinburgh
(55.9500°N, 3.1600°W)
Time: 21:26:13
(UTC+01:00)
Language:

M-CUBED/EXP-1 PRIME - Orbit

View from above orbital plane
View from above orbital plane
View from above satellite
View from above satellite

Ground track
Ground track

The orbit data is extracted from the following two-line orbital elements,

1 37855U 11061F   19109.58014027 +.00000962 +00000-0 +56403-4 0  9993
2 37855 101.7232 334.3022 0173842 254.9869 103.2045 15.05275795407261
Epoch (UTC): 19 April 2019 13:55:24
Eccentricity: 0.0173842
inclination: 101.7232°
perigee height: 430 km
apogee height: 671 km
right ascension of ascending node: 334.3022°
argument of perigee: 254.9869°
revolutions per day: 15.05275795
mean anomaly at epoch: 103.2045°
orbit number at epoch: 40726

The dashed part of the orbit path shows where the satellite is in the earth's shadow,  

DLR